Location: Rounton
(54.4000°N, 1.3500°W)
Time: 19:08:47
(UTC+01:00)

S-56A Canister/Altair - Pass Details

Date: 15 September 2024
Orbit: 636 x 2487 km, 38.9° (Epoch: 06 October)

Event Time Altitude Azimuth Distance (km) Brightness Sun altitude
Rises 22:30:03 0° 249° (WSW) 3,740 11.3 -25.1°
Reaches altitude 10° 22:32:48 10° 237° (WSW) 3,017 10.6 -25.4°
Enters shadow 22:37:55 26° 194° (SSW) 2,419 9.7 -25.9°
Maximum altitude 22:38:55 27° 183° (S) 2,464 - -26.0°
Drops below altitude 10° 22:47:12 10° 132° (SE) 4,183 - -26.7°
Sets 22:51:50 0° 122° (ESE) 5,487 - -27.1°
